Theta_e
314 315 315 314 314 314 313 312 313 312 312 312 311 311 311 311 311 312 312 312 313 312 313 315 315 316 318 319 320 321 321 322 323 324 325 325 326 327 328 328 328 328 328 330 331 331 327 328 335 339 340 339 338 337 337 334 333 338 339 339 337 334 332 329 330 333 334 334 334 333 332 331 331 333 334 331 328 326 321 317 320 322 320 318 314 313
314 315 315 314 314 314 313 313 313 312 312 312 312 311 311 311 311 312 312 312 313 312 313 315 315 316 318 318 320 321 321 322 323 324 325 325 326 326 326 326 327 327 327 328 330 332 330 327 332 338 340 340 339 336 334 334 336 339 340 338 335 333 333 331 331 334 335 334 335 335 333 331 331 333 333 330 327 325 321 318 319 320 321 321 319 318
314 314 314 314 314 314 313 313 313 313 313 312 312 312 312 311 311 312 312 312 312 311 312 314 315 317 318 318 320 321 322 322 323 323 325 326 325 325 325 325 325 325 326 328 328 330 332 330 332 337 339 339 339 336 335 337 339 340 340 339 335 333 333 333 335 336 336 336 336 336 333 330 331 334 333 331 328 325 322 320 320 319 320 320 319 319
314 315 315 315 314 314 313 313 313 313 313 313 313 312 312 312 311 311 311 312 312 311 312 313 314 316 318 317 319 320 321 322 322 322 323 325 325 324 324 324 325 324 325 326 326 328 331 332 333 336 338 339 339 339 339 339 339 339 340 339 337 335 334 334 337 338 338 338 337 335 332 330 332 333 332 330 328 325 323 321 321 320 320 320 320 320
314 315 315 315 314 314 314 313 313 313 314 313 313 313 312 312 312 311 312 312 311 311 312 313 313 315 317 317 318 319 320 321 321 322 322 323 324 323 323 323 323 323 323 324 325 326 329 332 332 334 337 339 340 339 339 339 339 338 338 338 339 338 338 337 337 339 339 338 337 335 333 332 333 333 332 329 327 326 324 322 323 322 321 321 321 321
314 315 315 314 314 314 313 313 313 313 313 313 313 313 313 313 312 312 312 312 311 311 312 312 311 313 317 317 318 318 318 319 320 321 322 322 323 322 322 323 322 322 322 323 324 325 328 331 332 333 336 338 340 339 338 338 338 337 338 337 338 340 340 339 339 339 338 338 338 336 335 335 334 334 333 331 330 329 326 325 324 324 324 323 323 323
314 314 314 314 314 313 313 314 314 313 313 313 312 312 313 312 312 312 312 312 311 312 312 312 311 313 317 318 318 318 317 318 319 320 322 321 321 321 321 321 321 321 321 322 323 324 327 330 331 332 334 336 337 338 339 338 337 337 337 337 338 339 339 338 338 337 336 337 338 337 336 337 336 336 335 333 333 331 328 326 326 326 325 324 324 324
314 314 314 314 314 314 314 313 314 313 312 312 312 312 312 312 312 312 312 311 311 312 312 312 311 312 315 317 318 318 317 318 318 319 320 320 320 320 320 320 320 320 321 322 323 324 326 328 329 330 330 332 334 335 336 337 336 337 337 337 337 337 336 336 335 334 333 335 337 337 337 337 336 336 335 335 335 333 332 330 329 328 327 326 326 326
315 315 315 315 315 314 314 314 313 313 312 312 312 312 312 312 312 312 312 311 312 313 312 312 312 311 313 317 318 316 317 318 318 318 318 319 320 320 319 319 320 320 320 321 321 323 324 326 327 327 327 329 332 332 332 334 334 334 335 338 337 333 332 332 332 332 333 335 336 337 337 337 337 336 335 336 335 335 335 334 334 333 333 333 331 329
315 315 315 314 314 315 315 314 313 312 313 313 312 312 312 312 312 312 311 311 312 313 312 312 312 312 313 317 318 317 318 317 317 317 317 319 319 319 319 319 319 320 320 320 320 321 322 323 325 327 328 328 328 329 331 333 333 333 334 336 335 332 330 330 331 331 331 333 334 335 336 337 338 338 337 337 336 335 334 334 335 333 334 337 335 332
315 314 314 314 314 315 315 314 313 312 313 313 312 312 312 312 312 312 311 312 312 312 313 312 313 312 312 316 318 317 317 317 316 317 317 318 318 318 319 319 318 319 319 319 320 320 321 322 323 326 328 329 329 328 329 330 332 332 332 334 333 332 333 334 334 330 328 331 332 333 334 335 338 338 338 338 338 337 334 330 330 329 330 335 337 333
315 314 315 314 315 315 314 313 313 313 313 312 312 311 312 312 313 313 313 313 312 312 313 313 313 311 312 316 318 316 316 316 317 317 317 317 318 317 317 318 317 318 318 319 319 320 320 320 321 323 325 328 330 331 331 330 331 330 329 331 331 330 332 334 335 333 332 333 334 334 335 335 337 337 336 336 336 337 335 329 328 328 326 329 334 335
315 315 314 314 315 315 314 313 313 312 312 311 312 312 312 312 313 313 313 313 312 313 313 313 312 311 314 318 317 314 315 316 317 317 317 317 317 316 316 317 317 317 317 318 318 319 319 319 320 321 322 324 326 328 330 331 331 332 331 332 332 331 331 332 333 335 335 336 336 336 336 336 337 336 335 335 335 335 334 330 327 328 327 327 332 334
315 314 314 313 315 315 314 313 313 313 313 312 312 312 312 313 313 312 312 312 312 313 313 312 312 312 316 317 315 315 315 316 317 317 316 317 316 316 316 316 316 316 316 317 317 317 318 318 318 319 320 321 322 323 325 327 328 329 330 332 333 334 334 335 335 335 335 335 335 335 336 336 336 336 335 335 336 336 334 331 329 327 328 329 333 334
316 315 314 314 315 315 314 314 314 313 313 313 312 312 313 313 313 312 312 312 312 313 314 313 313 314 317 317 314 315 316 316 317 316 316 316 316 315 316 315 315 315 316 316 316 316 317 317 318 318 318 319 319 320 321 323 324 326 327 329 331 332 333 334 334 334 335 334 334 334 335 335 334 334 335 335 336 337 335 332 330 329 329 330 333 334
316 315 315 315 316 315 314 315 314 313 313 313 312 312 313 313 313 313 313 314 314 313 313 314 314 316 317 315 314 315 315 315 316 316 316 315 315 316 315 315 314 314 315 315 316 316 316 316 317 317 317 317 317 317 318 320 322 323 325 326 328 329 330 331 331 332 333 333 334 333 333 333 333 333 334 335 336 337 336 335 333 332 331 331 333 333
315 315 315 315 315 315 315 315 314 313 314 314 312 312 313 312 313 313 313 314 313 312 314 315 315 316 317 315 315 314 314 315 315 315 316 315 315 315 315 315 314 313 313 313 314 315 314 315 315 316 316 316 316 316 317 317 319 320 322 323 325 326 327 328 328 329 330 331 332 332 331 331 332 333 335 335 336 336 336 335 335 334 333 334 336 335
315 315 315 314 315 315 315 315 315 314 314 313 313 313 312 312 313 313 313 313 312 312 314 315 315 316 317 317 315 314 314 313 313 314 315 315 315 315 315 314 314 313 312 312 313 314 314 314 314 315 316 315 315 316 316 317 317 317 318 319 321 323 324 325 326 327 328 329 330 330 331 331 332 333 334 334 335 335 335 335 335 334 335 336 337 337
315 315 315 314 315 315 314 314 315 314 314 314 314 313 313 313 314 313 313 312 312 312 314 316 316 315 316 317 315 314 315 313 313 313 314 314 314 314 314 314 314 313 313 312 313 313 314 314 314 314 315 315 315 315 317 317 317 317 317 318 318 320 321 322 323 324 325 327 328 329 329 330 331 332 332 333 334 334 333 334 334 334 335 335 336 336
315 316 316 316 315 314 314 315 316 316 314 314 313 313 313 314 314 314 314 312 312 313 314 316 315 315 317 317 316 315 315 314 313 313 314 314 313 313 314 314 314 313 313 313 313 313 314 314 314 314 315 315 315 315 316 317 317 316 316 317 318 318 319 320 320 321 322 323 325 327 327 329 330 331 331 331 331 332 332 333 334 333 334 334 333 333
316 316 316 316 315 315 315 315 315 316 316 315 314 314 314 314 313 314 314 312 312 313 315 315 315 317 318 317 316 316 314 314 314 314 315 314 314 313 313 313 314 314 313 313 312 313 313 313 314 314 314 315 314 315 315 316 316 316 316 316 316 317 318 319 319 320 320 321 321 323 325 326 328 330 331 331 332 332 332 332 333 332 333 333 331 331
315 315 315 315 315 314 314 314 313 314 315 315 315 315 315 315 314 313 313 313 313 312 314 314 314 317 317 315 315 315 315 316 316 315 315 315 314 313 313 313 313 313 313 313 312 312 313 313 313 313 313 314 314 314 315 315 315 315 315 315 315 316 317 318 319 319 319 320 320 320 322 323 325 327 328 330 331 331 331 331 331 331 331 331 331 330
315 315 315 314 314 314 314 314 314 313 313 313 313 314 314 315 315 314 314 315 314 313 313 313 314 317 317 315 315 315 315 316 315 315 315 315 314 313 313 313 313 313 313 312 312 312 312 313 313 313 313 313 313 314 314 314 314 314 315 315 315 314 314 316 317 318 319 319 319 320 320 320 322 323 325 326 328 329 330 331 331 331 330 331 331 330
316 315 315 314 314 313 313 313 313 313 312 313 313 313 313 314 314 315 315 316 314 314 314 314 314 317 316 316 316 316 316 315 315 315 315 315 315 314 313 313 313 313 312 312 312 312 312 312 312 312 312 312 313 313 313 313 313 314 314 314 314 314 314 314 314 315 317 318 318 319 319 320 320 321 321 323 324 326 328 329 331 331 331 332 332 332
315 314 314 313 313 314 313 313 313 313 313 314 313 313 313 313 314 315 316 315 314 314 315 314 314 316 316 316 316 316 316 316 316 315 315 315 315 314 313 313 313 313 312 312 312 312 312 312 312 312 312 312 312 312 312 313 313 313 313 313 313 314 314 314 313 313 314 315 317 318 318 318 319 319 320 320 321 322 323 325 327 329 330 331 332 332
314 314 314 313 312 313 313 313 313 313 313 313 313 313 313 313 314 314 315 315 314 315 315 313 314 317 316 315 315 315 315 315 316 315 314 315 315 314 313 313 313 313 313 312 312 312 312 312 312 312 312 312 312 312 312 312 312 313 313 313 313 313 313 313 313 312 312 313 314 315 317 317 318 318 319 319 319 320 320 321 322 324 325 327 330 331
313 313 315 314 312 312 313 313 313 313 312 312 313 314 314 313 314 315 315 314 315 315 315 314 315 317 317 316 314 315 314 314 316 316 315 314 314 313 313 313 313 313 312 312 312 312 312 312 312 312 312 312 312 312 312 311 312 312 312 312 312 312 312 312 312 312 312 313 313 313 314 315 316 317 318 318 319 319 319 319 320 320 321 322 324 326
313 313 314 315 314 313 313 314 314 314 313 313 313 313 313 313 313 315 314 315 316 315 314 316 316 316 317 316 315 315 314 315 316 316 315 315 314 313 313 313 312 312 312 312 311 312 312 312 312 312 312 312 312 311 311 311 311 311 311 311 311 311 311 311 311 311 311 313 313 312 311 312 313 315 316 317 317 318 318 318 318 319 319 320 320 321
314 313 314 315 315 314 314 314 314 314 314 314 313 313 313 313 314 314 315 315 316 315 315 318 318 317 317 317 316 315 315 315 316 316 315 314 314 313 313 312 312 311 311 311 311 311 311 312 312 312 311 311 311 311 311 310 310 310 310 310 310 309 309 309 310 311 311 311 312 311 311 311 311 312 313 314 315 316 317 317 318 318 318 318 319 319
314 314 314 315 314 314 314 314 314 314 314 314 314 313 313 313 314 314 314 315 316 316 317 318 317 317 317 317 316 316 315 315 315 315 314 314 313 313 312 311 311 311 311 311 311 310 311 311 311 311 311 311 310 311 310 310 309 309 309 310 309 309 308 307 307 309 311 311 311 310 311 311 310 310 311 311 312 313 314 315 316 317 317 317 317 318
315 314 315 315 314 315 315 314 314 314 314 314 314 313 313 314 314 314 314 315 315 316 316 316 317 316 316 316 316 316 315 314 315 315 314 313 313 312 311 311 311 311 310 311 310 310 310 310 310 311 311 311 310 310 310 309 308 308 308 309 309 308 307 306 306 307 309 310 310 310 310 310 310 310 310 310 310 311 312 312 314 314 315 316 316 317
315 314 315 315 314 314 315 315 314 314 315 315 315 313 313 314 314 314 314 314 315 316 316 316 315 315 315 315 315 315 315 314 314 313 313 313 312 312 311 310 311 310 310 310 310 310 310 310 310 310 310 310 310 310 309 308 308 308 308 308 308 307 306 306 305 306 307 308 308 309 308 308 309 309 310 311 311 311 311 311 312 312 313 313 314 315
314 313 314 314 313 314 314 315 315 315 315 314 314 313 314 314 314 313 314 314 315 315 315 314 314 314 315 315 314 314 314 314 313 313 313 312 312 311 311 311 311 310 310 309 309 310 310 310 309 310 310 310 309 309 309 308 308 308 307 307 307 306 306 306 306 306 306 306 307 307 306 306 308 308 309 311 311 311 311 311 311 312 312 312 313 313
314 313 313 313 313 313 314 314 315 314 313 313 314 314 313 314 314 313 313 314 314 314 314 313 313 313 314 313 313 313 313 313 312 312 312 312 312 311 311 311 311 310 310 310 309 309 309 310 309 309 309 309 309 309 309 308 308 308 307 307 307 306 305 305 306 306 305 305 305 305 305 305 306 307 309 310 311 311 311 311 311 312 312 312 312 313
314 313 313 313 313 313 313 313 313 313 314 314 314 313 314 314 314 314 313 313 314 314 314 313 312 312 313 313 313 313 313 312 312 312 311 311 311 311 311 311 311 310 310 310 309 309 309 309 309 309 309 308 308 308 308 308 308 307 307 307 306 306 305 305 306 306 304 303 304 304 303 304 305 306 308 309 311 311 311 311 311 311 311 311 311 311
314 313 313 313 313 313 312 311 312 313 314 315 315 314 314 313 313 313 313 312 312 313 313 313 312 313 313 313 313 313 313 313 312 312 311 311 311 311 311 311 310 310 310 309 309 309 308 308 308 309 308 308 308 308 308 308 307 307 307 307 306 305 304 305 305 305 303 302 302 302 301 302 303 305 306 308 309 310 310 310 310 310 310 310 310 310
314 314 313 313 313 313 312 312 312 313 314 315 315 314 313 313 313 312 312 312 312 313 312 312 312 313 313 313 313 313 313 312 312 312 311 311 311 311 311 310 310 310 309 309 309 308 308 308 308 308 308 307 307 307 308 307 307 307 307 307 306 305 305 305 305 304 302 301 301 300 300 301 302 303 304 305 307 309 309 309 309 309 308 308 308 308
315 314 314 314 313 312 312 312 312 311 312 313 315 315 314 314 314 313 312 312 312 312 312 312 312 313 314 314 313 313 312 311 312 312 311 311 311 311 310 310 310 309 309 308 308 308 309 308 308 308 308 307 307 307 307 306 306 307 307 307 306 305 305 305 304 303 303 301 300 300 300 300 301 302 303 304 306 307 308 308 307 307 307 307 307 308
315 315 314 313 313 312 312 312 312 311 311 313 314 315 314 314 313 313 313 312 312 311 311 311 312 313 313 313 313 313 312 311 311 311 312 311 311 310 310 309 309 308 308 308 308 308 308 308 308 308 308 308 307 307 306 306 307 307 306 305 305 305 305 304 303 303 302 301 300 300 301 301 301 303 304 305 306 307 307 307 307 306 306 307 307 307
315 314 313 313 313 313 313 312 312 311 312 314 315 314 313 313 313 313 312 312 312 311 311 311 312 313 313 312 313 312 311 311 311 312 312 312 310 310 309 309 308 308 308 308 308 307 307 307 308 307 307 307 306 306 306 306 306 307 306 305 305 305 304 303 303 302 301 301 301 302 302 302 303 304 305 306 306 306 306 306 306 306 307 307 307 307
315 314 313 313 313 313 313 313 312 312 313 315 315 313 312 313 313 313 312 312 312 312 312 311 312 312 313 313 312 311 311 311 311 312 312 311 310 309 309 308 308 308 308 307 307 307 306 306 307 307 307 307 306 306 306 306 307 307 306 305 305 304 303 302 301 301 300 301 302 302 303 303 304 305 305 305 305 306 306 305 305 306 308 308 308 308
314 314 314 313 313 313 313 312 312 312 314 315 314 313 313 313 313 313 313 312 312 312 312 312 312 313 313 313 312 311 311 310 310 310 310 310 309 309 308 308 308 308 308 307 308 307 306 306 307 306 307 307 306 306 306 306 306 307 305 305 305 303 302 301 300 300 300 299 300 300 302 303 305 305 305 305 305 305 305 305 305 306 307 308 308 308
314 313 313 313 313 312 312 312 312 312 313 314 313 312 312 313 313 313 312 312 312 312 312 312 312 313 313 312 311 310 310 310 309 309 310 309 309 308 307 308 308 308 308 308 308 307 306 306 306 306 306 306 306 306 306 306 306 306 304 304 304 302 301 301 300 300 301 300 301 302 303 304 305 305 305 305 305 305 305 304 305 306 307 307 307 308
313 313 312 312 313 312 312 312 313 313 314 313 313 313 312 313 313 313 313 313 312 312 312 312 312 312 312 311 310 310 310 309 309 309 309 309 308 308 308 308 308 307 308 307 307 307 307 306 306 306 306 306 306 306 306 306 306 305 303 303 303 301 301 302 301 300 301 302 303 304 304 305 304 304 304 304 304 305 305 304 304 305 305 306 306 306
313 314 314 313 313 313 313 313 314 315 314 313 313 314 314 314 313 313 313 313 313 312 312 312 312 312 312 311 310 310 309 309 309 309 309 308 308 308 308 308 308 308 308 308 308 308 307 306 306 306 306 306 306 307 307 306 305 304 303 302 302 301 301 302 301 300 301 303 304 304 304 304 304 304 304 304 304 305 304 304 304 304 304 305 305 305
315 315 314 314 314 314 314 314 315 315 315 314 314 314 315 315 314 313 312 313 313 312 312 312 312 311 311 311 310 310 309 309 308 308 308 308 308 308 308 308 308 308 309 308 308 308 307 306 306 306 306 306 306 307 307 306 305 303 302 301 300 300 301 301 300 300 301 302 304 304 304 304 304 303 304 304 304 304 305 304 304 304 304 304 304 305
315 315 314 313 314 314 314 314 315 315 315 315 314 314 315 314 313 312 312 312 313 312 311 312 312 311 311 311 310 309 309 309 309 308 308 308 308 308 309 309 309 309 309 309 308 308 308 307 306 306 306 306 306 306 306 305 304 303 301 300 299 299 299 299 299 301 302 302 303 304 304 304 303 303 304 304 303 304 304 304 304 304 304 304 304 305
315 314 313 313 314 314 314 315 316 315 315 315 315 314 314 314 313 312 312 313 313 312 311 312 312 311 311 311 310 310 309 309 309 309 309 309 309 309 309 309 309 309 309 309 309 309 308 307 307 306 306 306 306 307 305 304 304 302 299 298 298 298 298 299 299 301 302 302 303 303 303 303 303 303 304 303 303 303 304 304 304 304 304 304 305 305
314 313 313 315 315 314 314 315 315 314 315 315 315 314 314 314 314 313 312 312 312 312 312 312 312 311 311 310 309 309 310 309 309 309 309 309 309 309 309 309 309 310 309 309 310 309 308 308 307 307 306 306 306 306 305 304 303 301 298 298 297 296 296 298 299 302 303 303 303 303 303 303 304 303 303 303 303 303 303 303 303 303 304 304 305 305
314 313 314 315 313 313 314 315 315 314 313 314 314 314 314 314 314 314 313 312 311 312 312 312 311 311 311 311 310 310 310 309 309 309 309 310 310 310 310 310 309 310 310 310 310 309 309 308 308 307 307 306 307 306 305 304 302 301 299 298 297 295 295 298 300 303 303 303 302 301 301 303 304 303 303 303 303 302 302 302 302 303 303 304 304 304
314 313 314 314 313 313 314 315 314 314 314 314 314 314 314 314 314 315 314 312 311 312 312 312 312 311 311 311 311 310 310 310 309 310 310 310 310 310 309 309 310 310 310 310 310 310 309 309 308 308 307 306 306 306 305 303 302 301 300 299 296 295 295 297 300 302 303 303 302 299 299 302 303 302 303 303 302 302 302 301 301 302 302 303 303 304
Wind_Speed
4 5 3 1 2 3 2 2 2 2 0 1 2 3 3 3 3 3 3 3 1 4 3 2 2 4 4 5 6 7 7 8 10 10 11 11 11 12 12 13 13 12 12 12 13 14 10 10 11 9 10 13 12 12 13 13 16 20 20 20 21 22 22 22 21 21 21 20 19 18 19 18 17 16 14 14 15 15 19 24 26 26 26 25 24 24
5 4 1 3 3 3 1 0 2 2 3 4 4 4 4 5 4 4 4 3 3 6 3 4 3 4 4 4 6 6 7 9 10 11 12 13 12 12 13 14 14 13 13 14 14 15 15 7 8 8 10 13 13 14 16 15 16 19 20 21 21 21 22 23 22 20 20 20 18 15 17 18 16 15 15 15 16 17 20 23 24 26 26 25 25 25
5 1 4 3 1 2 1 2 4 5 5 5 5 4 4 5 3 4 5 4 3 6 4 6 5 4 4 4 6 6 7 8 9 11 12 13 12 13 14 14 15 14 14 16 17 15 16 12 2 7 9 11 12 14 16 15 16 18 20 23 23 21 21 21 21 19 18 18 16 13 16 18 17 16 15 15 16 19 22 22 21 24 25 25 25 25
2 3 5 2 2 3 4 3 5 5 6 6 5 5 4 3 4 4 6 6 5 5 4 6 6 3 5 4 5 6 6 7 8 10 12 13 13 14 15 14 14 15 15 16 18 16 15 14 6 4 8 9 9 12 16 16 17 20 22 23 24 24 21 20 19 18 17 16 13 13 15 16 15 14 15 16 17 19 22 22 21 22 23 23 23 23
0 6 4 2 3 4 4 4 6 5 5 6 6 6 5 4 6 4 3 5 6 6 6 6 7 5 6 5 4 4 4 5 8 10 12 13 14 14 14 15 15 15 15 16 18 17 14 13 10 3 5 7 8 11 14 15 17 20 22 21 22 23 23 20 19 18 17 14 12 13 15 15 14 14 14 16 18 20 22 22 21 22 22 22 22 23
2 6 2 3 3 4 5 4 5 4 4 4 6 7 6 4 6 5 5 5 6 7 8 8 8 5 7 7 4 3 2 4 7 10 13 13 14 14 14 15 15 15 14 15 16 16 13 10 9 6 0 4 7 10 11 13 15 17 19 19 18 20 20 19 18 17 15 13 13 16 17 16 15 15 15 16 17 18 19 19 20 21 22 23 23 24
2 4 2 4 4 5 6 5 3 4 6 3 3 4 5 5 5 6 6 6 6 4 5 7 8 5 7 7 6 4 3 3 5 9 13 14 13 14 15 16 15 15 14 14 14 14 12 11 10 8 4 1 5 7 9 12 14 15 16 16 16 18 17 14 14 13 12 14 15 16 17 16 14 14 14 16 16 16 17 17 18 19 20 23 24 25
1 3 4 5 6 6 6 4 2 4 7 0 4 3 5 5 6 7 7 6 6 3 3 8 9 7 5 5 6 5 5 3 4 8 12 14 14 13 14 15 15 15 14 13 14 13 12 11 10 9 6 2 2 4 8 11 13 14 14 15 16 12 7 7 6 7 11 15 15 14 14 15 14 13 13 13 12 11 12 14 16 17 18 20 21 21
2 4 3 4 6 5 4 2 1 4 6 2 4 2 4 4 5 5 6 6 5 4 6 8 8 8 5 5 5 4 4 2 5 7 10 12 13 12 12 13 13 14 14 13 13 13 11 9 8 8 8 5 3 3 5 8 10 12 11 13 10 3 9 4 6 9 12 15 15 14 14 14 13 12 13 12 10 9 9 10 12 14 14 14 15 15
1 3 4 5 6 3 3 2 1 5 4 2 3 4 3 4 4 5 6 6 4 6 8 7 8 7 5 5 5 2 2 2 5 6 8 11 12 11 10 11 12 13 13 14 13 13 12 11 9 8 5 2 2 4 4 4 4 6 6 8 5 4 5 1 8 10 11 13 14 15 15 14 12 11 12 11 10 11 11 10 9 10 10 11 12 11
1 1 2 4 4 4 4 2 1 4 3 2 5 6 5 5 4 4 5 4 5 7 6 5 6 7 5 3 3 3 2 3 4 4 7 9 11 11 10 9 10 11 12 13 13 13 12 12 12 9 5 4 2 3 4 3 2 2 4 4 1 3 5 7 11 14 15 14 15 15 16 15 13 13 13 12 12 13 14 14 13 12 12 13 12 10
2 4 3 2 2 4 5 4 3 4 4 5 6 5 5 5 4 5 5 5 6 6 3 3 4 8 7 2 4 4 3 3 4 4 6 8 11 12 11 9 9 10 11 11 12 13 13 14 15 13 10 8 4 1 1 2 2 2 3 1 4 5 5 5 10 16 17 17 17 17 19 17 15 15 15 15 15 14 14 16 17 15 14 15 14 12
4 3 2 3 1 3 5 5 4 5 6 6 6 5 6 5 4 5 5 5 6 3 3 2 4 7 4 3 4 3 4 4 4 5 6 8 10 12 11 10 9 9 10 11 12 12 13 15 16 15 13 11 8 5 4 2 2 5 7 5 5 6 5 4 7 10 12 14 16 16 17 17 17 17 17 17 17 16 16 17 17 15 15 15 15 15
2 4 2 5 3 2 5 3 2 4 5 6 6 5 6 5 4 5 5 5 5 2 3 2 3 5 2 4 3 3 4 4 3 4 5 6 8 9 10 10 10 10 10 11 11 12 13 13 14 15 15 13 12 11 8 5 4 5 8 10 9 8 8 7 8 9 9 11 13 16 16 17 19 21 22 21 19 18 18 18 17 16 16 17 16 16
3 2 2 1 1 2 3 3 3 3 5 5 4 5 6 5 5 4 4 4 3 2 4 4 3 3 1 3 3 3 4 4 2 3 5 5 5 6 8 9 10 11 10 10 10 11 12 12 12 13 14 13 13 13 12 10 8 6 6 9 9 9 9 9 8 10 12 13 14 17 19 20 21 24 26 24 20 18 19 19 18 18 19 20 19 18
5 0 4 3 3 3 3 4 4 5 5 2 2 6 5 4 4 3 2 3 4 4 2 4 3 1 2 4 4 3 4 4 4 4 6 5 4 5 6 8 10 11 10 9 9 10 10 11 11 11 12 12 13 14 14 13 11 9 7 5 5 6 7 7 7 10 13 15 17 18 19 20 21 22 23 21 17 17 18 18 18 20 21 21 20 20
4 0 4 2 1 3 4 3 4 5 3 1 3 5 1 2 5 3 1 0 3 6 2 2 3 2 4 5 4 4 5 4 4 4 5 4 4 4 5 7 8 10 11 10 9 9 10 10 10 10 10 10 11 12 13 13 13 12 10 8 6 4 3 3 3 5 8 13 16 18 19 18 18 17 17 17 17 17 18 17 17 19 19 19 20 21
4 2 3 2 2 4 4 1 2 4 4 3 3 2 2 1 5 4 3 3 4 6 2 1 5 4 4 3 4 5 6 4 2 4 4 3 3 4 5 6 6 7 9 10 9 9 9 9 9 9 9 8 8 9 9 10 11 11 11 10 8 7 6 5 4 3 1 5 10 14 16 16 15 15 15 16 17 17 17 17 18 19 19 20 21 21
4 3 3 1 1 3 2 4 3 1 4 7 5 4 3 3 4 4 4 4 4 5 2 1 4 4 2 2 6 6 6 7 3 1 1 1 3 4 5 5 6 7 8 9 9 10 9 9 9 9 9 8 8 8 8 8 7 8 9 9 8 8 8 7 6 6 4 2 1 5 9 11 13 14 15 17 19 19 19 18 18 19 20 21 21 20
2 3 1 2 1 1 3 4 3 3 4 7 6 6 5 3 3 3 3 3 3 4 2 2 3 1 2 3 7 7 7 8 6 4 3 2 2 2 4 5 6 6 6 8 9 10 10 9 9 9 9 9 9 9 8 7 6 6 6 7 7 7 7 6 6 6 6 5 3 2 2 5 8 11 13 16 18 18 18 17 17 19 22 22 21 21
2 2 1 1 1 2 2 1 3 1 3 5 5 5 6 4 3 3 3 3 3 4 2 3 3 2 5 4 6 8 8 9 7 6 5 3 3 2 2 4 5 4 5 7 8 9 10 10 10 9 9 9 9 7 7 7 7 6 5 4 5 5 5 4 4 5 5 5 5 4 2 1 3 5 7 9 11 13 14 16 17 18 21 22 23 24
2 2 3 1 1 1 2 3 4 3 3 3 3 4 4 4 4 4 4 3 2 4 3 3 3 3 4 2 5 7 7 8 8 7 6 5 4 3 1 2 3 4 4 6 7 8 9 10 11 11 10 9 8 7 6 6 6 7 6 5 3 3 3 4 4 3 2 2 3 3 3 2 1 2 4 5 7 8 10 12 14 16 17 19 21 23
2 3 3 1 2 2 4 2 1 1 2 3 3 4 4 3 4 5 3 1 2 3 2 3 3 2 3 4 7 8 8 9 9 8 6 6 5 4 3 1 1 3 4 5 5 7 8 9 10 11 11 10 9 8 7 7 6 6 6 7 6 4 0 3 4 4 4 2 1 1 2 3 2 2 3 5 7 7 8 9 11 13 14 14 15 17
1 3 2 1 2 3 3 3 3 3 3 3 3 2 4 3 4 4 3 2 2 3 2 4 2 2 4 7 8 9 9 9 9 8 7 6 5 4 4 3 1 3 4 4 5 6 7 8 8 9 10 10 9 9 9 8 7 7 7 6 7 7 5 2 3 4 6 6 5 4 3 3 3 3 3 4 5 7 7 7 8 9 10 11 12 13
2 2 1 1 1 2 2 3 4 4 4 3 2 1 3 4 4 4 3 3 4 3 3 5 1 3 5 7 8 9 9 9 9 8 6 5 5 4 4 3 2 2 3 3 4 5 6 7 7 8 8 9 9 9 9 9 8 8 7 7 6 6 7 5 2 3 5 7 8 8 7 6 6 6 5 4 5 5 6 7 7 8 8 8 10 11
1 2 2 3 3 1 1 1 1 1 2 2 1 2 3 4 5 4 3 4 4 2 3 5 1 4 6 7 7 8 8 7 8 8 6 4 3 3 2 2 1 2 3 4 5 5 5 6 7 7 8 8 9 9 9 9 9 9 8 8 8 7 7 7 6 4 3 4 7 9 10 10 9 9 9 8 8 7 6 7 7 8 9 9 9 10
0 1 2 4 5 4 3 4 3 3 2 1 3 3 3 3 4 5 5 4 3 1 3 3 2 2 6 8 8 8 8 7 8 8 7 5 4 3 2 1 1 1 2 3 4 5 5 6 7 8 8 9 9 9 9 9 9 9 9 9 9 9 8 8 8 8 6 4 3 5 9 11 12 12 11 11 11 10 10 9 9 9 9 10 10 10
1 2 2 3 4 3 3 3 2 2 2 2 3 3 4 4 4 5 6 4 5 4 2 2 3 1 2 7 8 8 8 8 8 9 7 5 4 3 2 1 1 1 2 3 4 5 6 6 7 8 9 9 9 9 9 9 9 9 9 10 10 11 11 10 10 10 9 7 5 4 4 7 10 12 13 13 13 13 13 13 13 13 12 12 12 12
2 1 2 1 1 1 1 2 2 2 2 2 3 4 4 5 5 6 8 7 6 6 3 5 3 3 2 3 7 7 8 8 8 8 6 5 4 4 3 2 1 1 2 3 4 5 6 7 7 8 8 9 10 10 10 10 10 10 10 10 10 11 12 12 11 11 10 9 8 8 7 6 6 8 12 14 15 16 16 15 15 16 15 15 15 15
2 1 2 2 1 2 3 3 3 3 3 3 3 4 4 6 6 7 8 7 6 7 6 6 5 4 2 2 5 6 7 7 7 7 7 6 6 4 3 3 2 1 2 2 3 5 6 7 7 7 7 8 9 10 10 10 11 11 11 10 11 12 12 13 12 11 10 10 10 10 9 9 8 6 7 10 13 16 17 18 19 18 18 18 18 19
2 1 2 2 2 2 2 3 3 5 5 4 3 2 3 5 6 6 7 5 5 7 6 5 5 3 1 3 5 7 7 7 6 7 7 6 5 4 3 3 2 1 1 2 3 4 6 7 7 7 7 7 8 9 9 10 10 11 11 11 11 12 12 13 13 12 11 10 10 10 10 10 9 9 9 9 10 12 15 17 19 20 21 22 22 22
2 2 2 3 3 2 1 3 3 4 6 6 4 2 2 4 4 3 4 4 4 4 3 4 5 2 4 5 5 7 7 7 6 6 6 5 4 4 4 3 2 1 1 2 3 4 5 6 7 8 7 7 8 8 9 9 10 11 12 12 12 12 12 13 13 12 12 11 10 10 11 11 10 10 10 10 10 11 11 13 15 17 19 22 24 26
2 2 2 3 3 2 2 2 2 3 4 3 1 1 1 3 3 3 2 3 4 3 3 3 2 3 5 6 6 6 6 6 6 5 6 6 6 5 4 4 2 1 1 2 3 4 4 5 6 7 8 7 7 8 9 9 9 10 11 11 12 12 12 12 12 12 12 12 12 12 12 12 11 11 10 9 9 10 10 10 11 12 13 16 19 21
2 3 1 2 3 1 1 2 3 3 2 2 4 1 1 2 3 4 3 3 4 5 4 4 3 3 3 5 5 5 5 5 5 5 6 6 6 6 5 4 2 1 2 3 3 3 4 4 5 6 7 7 7 8 8 8 9 10 10 10 11 12 12 12 11 12 13 13 13 13 14 14 13 12 11 9 9 10 10 10 11 10 10 11 13 14
3 3 2 1 3 3 2 2 4 3 2 3 3 0 2 3 4 5 6 5 5 7 7 6 3 3 5 6 5 4 3 3 4 5 6 6 6 6 6 4 3 2 2 3 3 3 4 4 5 6 6 7 7 7 7 8 9 9 9 10 10 11 12 12 11 12 13 14 14 15 15 15 14 13 12 10 9 10 10 10 10 11 10 11 11 12
4 4 2 2 2 3 3 3 3 2 3 3 1 1 1 2 3 5 6 5 6 7 8 7 6 5 7 6 5 3 2 3 4 5 6 7 7 7 6 5 4 3 3 3 3 3 4 5 5 5 6 7 7 7 8 8 9 9 9 9 10 11 11 11 11 12 13 14 15 15 16 16 16 15 14 12 10 10 10 10 10 10 11 11 12 12
6 4 3 2 1 2 4 3 2 2 2 3 1 3 5 3 3 4 5 4 4 6 7 8 6 7 8 7 5 4 3 4 5 5 7 9 8 7 6 5 4 4 3 3 3 4 5 5 5 5 6 7 8 8 8 9 8 9 9 9 10 11 11 11 11 12 13 14 15 16 16 17 17 16 15 14 12 11 11 11 11 10 10 11 12 13
6 5 4 3 1 1 4 4 2 3 3 3 3 4 6 3 2 3 6 4 3 5 7 8 8 8 9 8 7 6 4 4 4 4 8 10 9 8 7 6 4 4 4 4 4 5 5 6 6 6 6 6 7 8 9 9 9 9 9 9 10 10 10 10 11 12 13 14 15 16 16 16 16 16 16 14 12 12 12 11 11 10 11 12 13 14
7 6 5 4 3 3 4 5 3 3 2 2 4 6 7 5 3 3 6 2 4 2 6 9 9 10 10 10 9 7 5 5 4 2 8 11 9 8 7 6 4 3 3 4 4 4 5 6 6 6 6 6 7 8 8 8 8 8 9 10 10 10 9 10 12 12 13 14 15 15 15 15 15 15 15 14 12 11 12 12 11 12 13 14 14 13
7 6 6 6 6 4 4 5 4 3 2 2 4 6 8 6 5 5 4 1 4 1 4 8 10 11 11 11 10 7 6 4 2 4 8 9 8 8 6 5 4 3 3 3 3 4 5 6 5 6 6 6 7 7 7 8 8 8 9 10 10 9 10 11 12 12 13 14 14 14 14 14 13 12 12 12 11 11 12 12 11 12 14 14 13 12
7 6 6 6 6 5 5 5 5 3 1 4 6 8 10 8 5 5 2 4 4 1 3 7 10 11 12 11 10 8 6 1 4 4 6 8 8 7 6 4 4 3 3 3 3 3 5 6 5 6 6 6 6 6 6 7 8 8 9 10 10 10 11 11 12 12 13 13 13 12 12 12 12 12 10 10 11 11 11 11 11 12 12 12 12 13
6 5 5 6 6 5 4 5 6 3 2 6 8 10 10 6 2 1 4 6 3 1 3 6 9 10 11 12 9 7 4 2 2 3 6 8 7 6 5 4 4 3 3 3 4 3 4 6 5 5 5 5 5 6 6 7 8 8 9 10 9 10 11 11 12 12 13 13 13 13 13 11 11 11 10 9 10 11 11 11 11 11 11 11 11 11
4 4 5 5 5 5 4 4 6 4 3 11 11 9 7 5 3 4 5 5 3 2 4 6 8 9 11 11 9 7 5 3 4 5 6 7 7 6 5 4 4 4 3 3 3 2 3 5 4 3 3 4 5 5 6 7 8 9 9 9 10 11 11 11 11 11 11 12 12 12 11 10 10 11 9 9 10 10 11 11 11 10 11 11 10 10
4 4 5 3 4 4 4 4 2 2 7 17 12 4 7 9 1 2 3 4 4 4 4 5 7 9 11 10 9 8 7 5 5 6 6 7 7 6 5 5 4 4 3 2 3 3 3 4 3 2 3 4 4 5 6 6 8 9 9 9 10 10 10 9 10 10 10 10 10 10 9 9 9 9 9 9 10 10 10 12 12 11 11 11 10 10
4 3 4 3 3 4 5 3 2 6 10 17 13 4 4 8 6 3 3 2 4 5 4 4 7 9 10 10 9 9 8 7 6 7 7 7 7 7 6 6 5 4 3 3 3 4 4 4 3 3 3 3 4 5 5 6 7 8 9 9 9 9 8 8 9 9 9 9 9 9 9 9 8 8 9 9 9 9 10 11 12 11 11 11 11 11
4 2 2 3 2 4 7 6 3 2 6 12 13 9 5 6 7 8 6 4 3 5 5 4 6 9 10 10 9 9 9 7 7 8 7 7 7 7 7 6 6 5 5 4 4 5 5 4 4 4 4 4 5 5 6 7 8 8 9 9 9 9 8 8 8 9 9 9 8 8 9 8 8 7 8 8 9 9 9 10 11 10 10 12 14 14
6 6 5 5 3 2 4 5 5 5 6 8 10 12 10 10 9 10 9 7 4 6 6 5 6 8 10 10 9 9 8 8 8 8 8 8 8 7 7 7 7 6 6 5 5 6 6 5 6 5 5 6 6 6 7 7 7 8 9 9 9 8 7 7 7 8 8 8 8 8 8 8 8 8 7 7 8 8 8 9 10 9 10 14 18 18
4 6 6 7 7 6 6 4 3 4 5 6 8 9 11 13 13 13 12 9 7 7 8 8 7 8 9 9 10 9 8 9 9 8 8 8 8 7 7 7 7 6 6 6 6 7 7 7 7 6 6 7 7 7 7 7 7 8 9 10 9 8 7 6 6 6 7 7 7 7 7 7 8 8 6 7 8 8 8 8 9 8 10 14 19 20
5 5 4 5 6 8 8 8 7 7 7 9 9 9 8 10 13 14 14 13 11 10 10 10 10 9 9 8 9 9 10 9 9 9 9 8 8 7 7 7 7 6 6 6 7 8 8 8 8 7 7 7 7 7 7 7 7 9 9 9 8 8 6 6 5 5 6 6 6 7 7 6 6 6 6 6 7 7 7 8 8 8 9 12 15 16
4 5 5 4 5 7 6 5 5 6 6 5 6 6 6 6 9 13 15 15 15 13 12 12 12 11 10 9 8 9 10 10 10 10 10 9 8 8 7 7 7 7 7 7 8 9 9 9 9 8 8 8 7 7 7 6 7 8 8 8 8 8 6 5 5 5 5 5 5 6 6 5 6 6 6 6 7 7 8 10 10 9 8 9 11 12
10 10 8 6 7 7 6 5 4 5 7 4 3 4 4 5 7 11 15 17 17 16 14 13 13 13 12 11 10 10 10 10 10 10 10 10 9 8 8 8 7 7 7 8 9 9 9 9 9 9 9 8 7 7 7 6 6 6 6 7 8 8 7 5 5 5 5 4 6 8 7 5 6 7 7 7 8 8 8 9 11 11 9 9 9 10
Wind_Direction
269 241 215 255 42 33 22 337 337 30 142 237 232 227 232 230 190 164 154 117 219 235 167 153 134 103 72 55 42 28 37 38 37 39 36 39 41 41 39 35 33 31 23 12 7 4 330 256 231 220 218 231 235 225 220 219 226 229 220 205 200 204 210 212 213 215 210 210 212 209 213 217 217 213 208 212 214 213 218 219 221 223 224 225 225 228
246 246 99 43 34 47 36 245 227 224 218 225 237 223 211 230 205 162 177 149 214 245 177 161 170 112 83 60 52 34 42 41 32 34 35 37 40 42 39 34 33 28 21 13 10 12 5 328 233 215 212 228 235 216 205 210 225 233 227 214 205 204 211 214 214 214 211 212 209 204 212 215 214 212 210 215 218 219 222 223 224 226 227 226 227 228
218 215 73 61 64 120 144 182 210 219 223 228 236 237 222 225 211 171 191 184 213 250 198 182 200 129 103 74 60 46 48 49 39 37 37 37 39 41 37 32 30 25 20 16 11 11 12 9 281 212 207 221 228 215 214 224 231 233 230 224 218 216 218 217 215 214 215 215 205 201 213 215 212 213 214 218 221 222 225 226 228 230 232 230 230 231
218 83 70 96 171 194 181 171 212 215 217 231 233 243 237 212 241 219 191 186 208 259 255 204 211 171 141 128 84 58 52 55 46 42 41 40 41 41 37 31 28 26 21 15 11 10 16 23 18 230 213 214 218 219 227 232 229 229 230 229 227 228 229 225 219 214 213 213 205 203 211 215 213 214 218 222 225 227 228 230 231 234 237 235 235 235
16 80 84 156 182 222 210 182 216 228 217 223 232 252 256 214 245 259 181 187 211 237 247 229 227 204 182 179 132 83 60 55 42 39 40 41 42 40 38 35 31 28 23 17 14 11 16 32 34 356 235 220 215 219 227 229 229 230 229 230 231 234 236 232 228 220 210 206 202 204 208 210 211 212 220 227 229 229 230 232 234 238 241 241 239 239
86 92 126 212 197 224 241 220 223 254 254 223 220 246 269 249 243 247 208 213 229 222 211 222 245 218 178 179 153 129 100 56 36 35 36 33 35 34 33 33 30 26 24 21 18 13 15 36 54 55 350 238 227 223 226 230 233 234 235 236 236 235 233 228 227 218 205 202 199 202 206 204 205 210 216 225 229 229 230 234 239 244 247 245 243 242
104 121 194 253 245 228 242 247 219 253 265 242 179 219 261 260 243 241 230 227 247 244 178 207 252 242 178 170 145 151 149 70 35 34 34 26 27 30 30 30 26 24 24 23 23 22 23 33 52 66 78 234 240 230 232 236 240 246 246 243 244 244 238 232 227 209 196 205 203 200 204 201 201 208 213 222 230 232 232 235 238 242 245 246 246 245
178 194 216 249 259 246 247 251 179 241 269 313 108 177 230 230 230 239 241 240 252 264 195 209 240 257 222 165 133 168 175 102 36 29 29 23 22 26 29 29 27 27 27 28 28 29 28 27 30 38 43 24 271 244 242 243 248 254 254 253 257 255 247 242 232 205 200 209 208 201 204 205 204 206 212 218 225 227 226 229 232 233 241 250 253 249
240 260 260 265 262 261 272 292 101 248 265 83 105 220 233 231 242 244 247 253 252 252 241 220 220 248 244 158 140 185 182 101 31 29 24 19 19 19 23 24 27 30 32 36 36 34 33 34 38 36 31 10 315 285 258 245 249 255 256 258 256 80 69 94 166 188 205 208 209 207 207 211 210 209 212 213 214 219 218 221 228 230 234 249 258 252
259 307 314 289 273 280 293 303 294 259 264 100 151 221 215 225 241 243 253 256 241 246 255 228 210 245 249 164 153 159 150 10 12 28 22 20 19 16 17 19 24 29 34 39 41 43 42 40 46 49 43 18 328 327 298 261 254 260 262 263 244 92 51 197 170 186 209 213 218 219 218 217 211 210 215 212 213 223 225 224 235 243 239 241 251 253
24 295 251 267 294 316 295 271 248 259 261 158 201 213 207 215 221 235 252 257 250 246 243 211 208 249 257 167 114 88 89 359 5 30 27 25 24 20 17 17 22 26 32 37 39 45 49 46 48 54 69 95 99 4 331 308 319 290 273 285 183 161 229 214 185 194 204 214 226 232 233 226 212 211 218 219 219 225 231 231 233 242 246 246 248 247
210 194 169 136 350 317 265 222 181 213 213 206 220 224 223 220 213 226 223 221 249 247 194 167 218 248 248 156 90 93 90 42 32 43 35 30 31 30 24 21 23 23 29 33 33 39 45 49 53 55 59 73 103 107 24 295 286 235 219 151 115 156 193 183 190 201 205 213 221 227 234 232 223 222 225 227 227 227 230 231 230 230 230 233 238 236
210 163 116 152 152 326 272 222 179 191 204 215 228 230 235 229 213 227 222 216 243 236 137 159 232 246 241 101 92 100 81 56 58 65 53 39 35 35 30 25 23 24 29 31 28 31 38 45 50 50 50 56 69 85 98 137 167 154 154 137 135 177 194 169 184 201 208 216 217 221 230 232 231 232 234 237 237 234 227 225 231 233 224 220 226 230
180 129 158 195 163 341 300 268 200 194 204 218 226 230 239 241 231 236 235 234 244 199 143 166 232 239 202 108 90 84 78 52 60 93 84 53 37 31 28 23 22 24 28 29 28 28 31 39 47 51 51 51 55 63 68 69 76 105 125 129 141 175 191 186 191 197 200 208 213 215 218 222 225 229 233 235 238 239 231 225 229 233 229 228 232 236
273 174 161 219 66 355 332 351 333 273 236 231 242 246 246 252 255 256 254 256 268 208 163 170 217 262 230 129 104 88 94 58 51 121 107 72 45 32 27 20 17 21 24 26 28 28 27 32 40 49 55 54 55 60 62 59 54 57 87 116 136 160 171 177 187 191 193 200 207 211 213 214 218 224 229 231 233 237 235 230 230 231 230 233 240 242
279 264 87 63 38 13 13 22 344 292 248 228 256 245 245 273 272 274 312 323 318 288 215 187 213 355 71 136 128 123 126 80 60 98 102 86 57 30 26 20 13 13 18 21 23 24 24 28 35 43 51 59 64 64 64 62 60 59 62 78 111 146 160 167 178 185 192 199 204 210 215 214 213 219 224 226 227 230 233 232 232 233 232 233 239 242
283 131 109 141 132 46 20 21 14 338 290 243 251 241 204 327 286 267 261 340 289 273 245 195 235 145 135 161 145 152 157 111 63 65 76 77 60 31 23 21 13 9 12 15 17 17 19 23 31 39 43 56 70 71 70 70 68 67 70 73 84 107 128 149 175 183 195 205 209 215 221 221 218 219 221 223 226 230 235 236 234 236 234 232 236 238
310 271 140 198 191 87 49 335 42 15 329 278 257 271 94 234 262 259 248 217 238 258 228 223 260 224 187 181 158 174 176 153 88 40 36 40 53 40 33 30 21 14 10 10 12 13 19 22 25 35 38 44 63 72 73 76 76 76 75 73 75 80 84 84 92 103 166 218 222 226 229 228 226 225 225 226 228 231 234 236 237 239 237 232 232 235
307 278 134 113 313 107 128 239 208 152 285 283 293 300 265 232 224 216 244 253 248 262 248 225 255 241 240 165 162 175 173 166 164 81 335 25 60 40 38 40 31 24 12 5 10 13 20 23 22 31 37 39 48 55 54 54 68 88 90 81 73 70 69 68 75 84 80 74 247 247 244 241 236 234 233 232 232 232 232 233 237 239 239 235 233 235
294 280 139 113 317 200 187 246 241 175 236 268 277 263 240 261 280 229 243 274 268 273 272 269 262 217 58 100 154 161 158 166 173 186 206 173 96 50 37 41 35 32 19 7 13 19 25 28 26 30 36 42 45 44 43 38 43 71 93 96 90 79 70 63 61 69 78 74 59 24 288 259 249 245 245 243 241 241 240 240 243 244 244 241 237 237
264 268 280 141 179 226 195 346 338 350 232 241 235 232 217 219 273 272 250 258 275 282 276 282 288 83 72 79 138 143 153 170 180 186 191 168 138 126 54 42 39 39 26 18 20 24 29 33 34 35 35 42 46 42 40 39 35 38 48 78 105 107 101 94 70 60 61 62 60 54 42 317 254 249 250 251 252 254 255 256 257 256 254 250 244 242
298 274 289 293 140 179 97 53 6 354 313 268 230 250 250 223 238 251 231 201 228 271 292 294 299 68 87 122 134 139 162 175 179 184 180 167 161 157 130 51 42 45 35 28 26 26 30 32 36 42 42 42 46 43 39 36 33 30 25 28 53 108 137 149 142 120 85 47 40 37 36 31 328 257 249 248 253 258 263 264 262 259 259 259 255 251
321 282 280 354 55 82 105 105 339 318 310 299 261 275 289 258 248 258 251 190 203 241 284 273 272 68 114 155 147 153 170 174 179 184 179 167 163 159 155 152 53 53 45 34 28 28 30 30 33 40 45 45 44 43 42 39 34 32 29 22 13 6 204 182 173 168 172 178 220 307 335 345 347 322 278 261 256 254 256 262 265 262 259 259 257 255
221 276 266 105 89 108 132 171 201 205 235 247 235 273 294 268 263 282 299 318 264 237 247 249 238 116 145 161 164 169 171 175 183 186 183 167 153 155 163 172 152 74 59 42 36 32 32 33 33 36 42 45 44 44 43 42 40 35 35 33 21 8 355 307 217 198 192 191 197 215 244 271 290 298 301 286 273 268 262 258 264 266 262 260 258 256
208 309 286 225 167 154 187 200 186 187 214 224 196 284 307 292 275 274 275 267 256 246 266 276 306 106 150 165 175 182 181 185 184 181 187 176 154 158 167 169 152 83 64 51 45 39 37 38 37 37 40 44 45 46 45 43 44 42 38 38 32 20 10 358 322 243 220 209 206 207 213 225 236 244 252 258 263 272 273 267 261 257 256 256 257 258
271 346 330 313 339 1 306 327 123 189 214 221 221 257 297 303 287 277 264 249 245 205 237 269 336 105 148 173 186 192 196 195 180 176 189 189 169 170 174 166 131 78 53 44 39 37 39 38 38 42 44 43 44 47 47 46 46 46 44 42 38 31 21 13 9 352 296 241 224 220 218 220 224 228 232 238 243 245 250 257 261 261 260 255 252 253
248 50 11 358 19 30 18 31 33 0 337 268 263 261 277 304 303 285 258 255 288 265 228 262 3 114 164 183 191 195 203 201 182 181 191 189 182 188 191 175 108 57 37 34 28 29 35 36 37 40 42 43 41 42 44 44 44 42 41 41 37 34 28 22 23 22 10 347 288 250 235 231 233 235 235 236 239 242 242 243 244 250 255 255 253 253
225 101 59 20 48 55 17 25 34 342 327 302 289 279 274 284 291 273 258 288 331 295 252 44 21 311 169 177 185 186 196 200 190 191 193 184 188 205 218 235 285 333 16 22 20 25 31 33 34 34 36 38 36 36 37 36 35 33 32 33 30 29 28 24 26 27 24 19 5 337 293 257 246 246 248 246 244 244 244 245 244 244 246 248 247 248
282 104 134 251 88 125 279 295 282 283 298 304 292 282 276 269 267 264 264 287 305 280 307 11 337 316 33 164 179 175 184 190 186 189 189 185 194 205 220 241 271 311 348 3 8 21 29 30 31 30 32 31 28 29 29 27 28 26 24 26 24 23 23 22 23 25 23 20 15 8 358 332 291 264 258 257 256 255 251 250 249 248 248 249 247 244
301 112 154 233 241 214 239 249 256 266 274 278 274 270 269 264 265 266 267 280 285 275 299 331 308 307 12 148 155 150 170 175 167 175 188 196 201 206 224 237 248 291 328 356 7 19 29 31 31 29 29 28 24 24 23 23 24 22 21 21 18 17 18 18 20 21 19 16 14 12 6 356 346 325 292 274 266 263 262 259 257 254 254 255 254 251
269 155 155 237 238 203 222 244 245 253 266 277 287 284 255 253 259 261 263 268 262 262 279 298 283 268 150 131 123 132 158 174 176 187 199 205 208 218 234 235 225 249 314 357 8 19 27 29 28 27 25 24 23 21 21 22 22 20 21 19 15 16 16 17 21 20 17 13 10 7 3 359 355 347 331 313 294 280 274 269 266 263 260 258 258 257
243 198 175 236 246 158 165 255 244 242 259 266 277 292 232 225 242 257 261 252 245 257 261 248 259 247 136 141 145 152 171 193 199 204 212 214 214 219 218 213 216 244 322 352 0 10 19 23 24 23 20 18 20 20 18 20 20 19 20 18 15 16 16 18 21 21 19 15 9 5 3 1 358 350 342 333 319 305 294 286 280 275 269 264 262 260
242 232 197 257 277 105 123 269 259 242 254 247 260 332 240 208 242 259 252 237 232 236 227 229 286 42 107 150 172 174 186 206 213 216 220 217 212 211 204 200 213 252 308 334 348 351 0 13 19 19 18 15 16 17 16 17 17 16 17 15 13 15 16 16 17 18 18 15 10 8 6 3 358 351 348 340 327 318 312 306 299 291 284 275 267 265
231 252 265 300 305 20 77 259 234 238 277 65 74 18 273 247 267 263 256 241 212 206 233 273 338 47 134 172 181 181 191 208 220 223 223 217 205 201 202 207 223 260 295 320 334 333 340 357 7 14 17 15 12 11 10 11 11 10 11 11 10 11 12 12 11 9 10 10 9 7 5 2 358 351 349 346 337 328 321 314 306 299 296 290 280 276
224 243 250 285 296 307 317 267 239 252 10 61 82 27 273 274 282 280 281 270 226 217 233 253 258 202 184 180 177 180 189 201 220 226 219 210 200 196 199 206 224 247 260 289 310 317 322 331 344 358 7 8 7 6 2 0 2 4 4 5 6 7 7 9 8 0 360 3 3 1 0 360 357 351 347 345 339 330 324 318 311 304 299 294 287 283
236 240 238 254 288 298 294 280 282 342 51 85 119 154 179 232 246 261 277 262 223 223 230 231 227 199 185 184 177 166 169 192 217 222 210 201 195 193 197 201 215 234 248 265 283 302 310 311 321 334 346 356 360 0 357 353 353 357 358 358 0 2 2 5 4 356 356 357 355 354 355 355 354 351 346 340 334 329 325 319 314 309 303 296 289 285
235 244 246 251 281 299 291 286 297 295 158 141 141 171 181 207 216 235 283 282 213 219 225 224 223 197 188 190 175 160 173 204 220 215 201 200 199 195 200 205 213 231 250 259 272 293 301 300 304 311 325 342 346 348 351 350 349 351 352 352 354 355 357 360 358 354 353 353 351 350 351 351 349 345 341 337 332 329 327 322 316 312 305 300 295 290
226 236 247 250 216 254 288 287 272 262 220 137 109 152 178 210 211 231 283 285 192 207 222 220 218 200 190 188 174 170 190 222 238 210 187 193 200 196 200 210 217 239 256 260 276 298 303 297 291 295 310 327 334 337 341 343 348 350 350 349 348 349 352 353 351 351 350 349 349 349 349 347 343 340 339 338 334 330 327 324 319 315 309 307 305 299
219 229 239 254 243 235 273 283 265 277 308 86 110 147 171 187 185 235 273 248 140 180 228 220 214 202 194 190 183 181 203 233 257 175 162 180 195 196 200 209 219 241 257 261 277 300 311 303 285 282 298 312 322 329 332 337 343 344 344 346 345 346 348 346 346 348 345 345 348 349 348 346 342 341 341 341 337 332 329 325 322 322 323 324 321 313
212 222 222 238 246 232 249 276 276 275 280 126 133 149 159 167 190 243 273 95 102 133 229 216 210 202 198 195 190 198 225 248 336 75 137 167 183 189 198 210 220 241 252 254 271 295 313 311 290 276 285 295 309 321 327 331 336 335 337 340 341 342 343 341 343 344 342 344 347 346 346 345 342 342 344 342 339 336 332 330 329 332 335 335 335 331
206 218 220 238 252 228 221 260 278 273 160 133 142 147 147 157 202 250 321 59 76 93 207 211 210 199 194 195 196 212 230 230 45 73 141 166 175 182 197 210 218 234 240 245 273 301 314 316 298 278 278 282 297 313 322 327 330 329 331 335 335 336 337 337 341 343 341 343 344 343 346 348 343 343 347 345 343 342 338 336 335 337 340 341 341 339
202 207 216 234 251 245 245 267 275 277 120 128 133 137 152 178 242 350 67 70 81 142 173 201 207 195 191 195 202 221 225 162 113 140 163 172 178 187 201 212 219 232 236 249 267 285 313 318 303 282 277 275 289 304 314 321 326 326 329 331 329 329 332 334 339 341 340 341 345 347 350 351 347 347 349 346 346 347 345 342 340 339 340 341 341 342
198 209 223 221 225 242 252 249 263 296 126 144 138 134 179 226 352 58 111 111 112 157 175 191 199 193 190 196 204 215 215 189 178 175 173 182 192 200 210 213 220 229 231 247 259 269 313 321 306 279 273 273 284 298 309 317 322 323 326 326 321 322 327 331 336 338 337 340 346 350 350 349 348 349 350 348 350 351 351 352 354 350 344 340 338 340
192 213 248 235 189 221 247 229 249 20 140 164 168 167 207 216 278 54 180 160 141 167 179 180 188 191 193 200 207 210 211 209 200 191 190 198 203 209 214 213 219 227 227 246 268 272 298 320 319 280 267 270 281 294 302 310 316 320 322 319 315 319 324 326 330 335 338 341 343 345 348 348 347 348 350 350 352 354 354 357 2 2 357 351 345 342
209 227 294 293 200 234 281 300 51 81 142 179 203 246 212 201 200 197 218 194 160 173 181 176 180 186 193 203 207 207 210 213 209 204 205 206 207 209 212 215 220 226 233 255 277 275 283 306 317 295 278 279 286 295 302 306 310 316 319 315 314 318 320 320 327 335 341 342 342 344 348 348 344 349 355 355 355 356 355 356 359 1 2 3 359 353
209 204 289 288 239 249 271 263 234 187 178 196 219 238 218 200 201 196 207 228 191 172 173 174 176 181 189 200 205 205 208 208 206 206 206 204 206 207 210 218 221 226 241 257 270 276 281 288 293 292 292 292 294 299 303 306 310 316 318 318 319 319 317 319 327 336 342 344 343 345 349 347 345 352 356 355 358 359 356 357 358 355 357 4 6 3
201 193 215 245 242 242 253 230 203 214 217 210 223 231 222 219 217 207 210 223 205 179 178 175 176 181 185 193 202 202 201 200 200 199 199 201 205 208 213 220 222 227 242 251 255 261 265 269 276 281 285 292 298 298 301 308 311 312 317 321 323 321 318 320 328 336 340 342 341 344 347 345 349 358 358 352 358 1 357 358 359 356 358 2 4 4
177 174 215 240 234 238 259 253 197 203 220 218 227 232 226 225 224 216 212 212 195 183 184 179 177 180 181 190 200 202 199 200 199 200 201 204 209 212 214 219 222 228 239 245 245 247 249 255 266 271 275 285 291 290 297 306 306 306 317 325 324 322 319 317 322 330 335 337 336 339 345 345 348 357 353 344 354 2 0 358 359 357 2 5 5 6
116 158 218 240 238 244 256 254 237 232 233 224 224 235 240 234 226 216 212 208 196 188 187 187 186 186 186 191 198 201 202 202 202 204 205 206 209 212 214 218 223 231 242 245 244 246 247 250 258 265 271 279 282 281 290 299 297 305 321 328 325 323 320 315 316 319 325 331 328 330 341 345 346 352 352 347 351 357 358 5 11 9 5 6 6 7
181 227 231 222 237 244 245 243 237 247 256 230 202 212 232 231 221 212 206 203 199 195 192 192 193 196 199 199 197 201 204 204 202 204 206 208 211 214 219 228 233 239 244 242 243 248 250 249 253 260 267 275 276 274 282 290 292 302 319 327 327 330 326 316 310 304 308 320 322 325 337 342 335 342 349 348 348 347 347 357 7 12 13 9 4 5
222 243 241 233 247 255 260 261 243 247 269 265 172 176 202 201 203 205 202 201 200 197 194 195 196 200 206 206 203 204 204 203 202 204 209 213 217 222 228 232 236 243 245 242 243 249 251 249 251 255 262 271 272 267 272 282 285 292 311 326 333 338 334 318 301 293 296 303 313 328 343 341 327 334 342 341 342 345 344 343 347 355 2 1 355 356